TimeEDT,TemperatureF,Dew PointF,Humidity,Sea Level PressureIn,VisibilityMPH,Wind Direction,Wind SpeedMPH,Gust SpeedMPH,PrecipitationIn,Events,Conditions,WindDirDegrees,DateUTC
12:15 AM,42.8,39.2,87,29.93,9.0,NNW,3.5,-,N/A,,Mostly Cloudy,330,2013-03-17 04:15:00
12:35 AM,42.8,39.2,87,29.93,8.0,NNW,3.5,-,N/A,,Overcast,340,2013-03-17 04:35:00
12:55 AM,42.8,39.2,87,29.93,8.0,WNW,5.8,-,N/A,,Overcast,300,2013-03-17 04:55:00
1:15 AM,41.0,39.2,93,29.94,8.0,NW,5.8,-,N/A,,Overcast,320,2013-03-17 05:15:00
1:35 AM,41.0,39.2,93,29.94,9.0,NNW,6.9,-,N/A,,Overcast,330,2013-03-17 05:35:00
1:55 AM,41.0,39.2,93,29.94,8.0,NNW,5.8,-,N/A,,Overcast,340,2013-03-17 05:55:00
2:15 AM,39.2,37.4,93,29.95,10.0,NNW,6.9,-,N/A,,Overcast,330,2013-03-17 06:15:00
2:35 AM,39.2,37.4,93,29.96,10.0,Calm,Calm,-,N/A,,Overcast,0,2013-03-17 06:35:00
2:55 AM,39.2,37.4,93,29.95,10.0,North,5.8,-,N/A,,Overcast,350,2013-03-17 06:55:00
3:15 AM,39.2,37.4,93,29.95,10.0,NNW,5.8,-,N/A,,Overcast,340,2013-03-17 07:15:00
3:35 AM,39.2,37.4,93,29.96,10.0,NNW,5.8,-,N/A,,Overcast,330,2013-03-17 07:35:00
3:55 AM,39.2,37.4,93,29.95,10.0,North,3.5,-,N/A,,Overcast,350,2013-03-17 07:55:00
4:15 AM,37.4,37.4,100,29.95,10.0,NW,5.8,-,N/A,,Overcast,320,2013-03-17 08:15:00
4:35 AM,37.4,35.6,93,29.94,10.0,NNW,4.6,-,N/A,,Overcast,330,2013-03-17 08:35:00
4:55 AM,37.4,35.6,93,29.95,10.0,North,5.8,-,N/A,,Overcast,350,2013-03-17 08:55:00
5:15 AM,37.4,35.6,93,29.96,10.0,NNW,5.8,-,N/A,,Overcast,330,2013-03-17 09:15:00
5:35 AM,37.4,35.6,93,29.97,10.0,NNW,6.9,-,N/A,,Overcast,340,2013-03-17 09:35:00
5:55 AM,37.4,35.6,93,29.98,10.0,NNW,8.1,-,N/A,,Overcast,340,2013-03-17 09:55:00
6:15 AM,35.6,35.6,100,29.98,8.0,North,12.7,-,N/A,,Overcast,10,2013-03-17 10:15:00
6:35 AM,35.6,35.6,100,30.00,6.0,North,8.1,-,N/A,,Overcast,350,2013-03-17 10:35:00
6:55 AM,35.6,35.6,100,30.01,7.0,North,8.1,-,N/A,,Overcast,10,2013-03-17 10:55:00
7:15 AM,33.8,33.8,100,30.02,5.0,North,11.5,-,N/A,,Overcast,10,2013-03-17 11:15:00
7:35 AM,33.8,33.8,100,30.04,4.0,North,8.1,-,N/A,,Overcast,360,2013-03-17 11:35:00
7:55 AM,33.8,33.8,100,30.05,6.0,North,10.4,-,N/A,,Overcast,10,2013-03-17 11:55:00
8:15 AM,33.8,33.8,100,30.07,3.0,North,6.9,-,N/A,,Overcast,360,2013-03-17 12:15:00
8:35 AM,32.0,32.0,100,30.08,2.0,North,6.9,-,N/A,,Overcast,360,2013-03-17 12:35:00
8:55 AM,32.0,32.0,100,30.10,3.0,North,8.1,-,N/A,,Overcast,360,2013-03-17 12:55:00
9:15 AM,32.0,32.0,100,30.11,3.0,North,8.1,-,N/A,,Overcast,10,2013-03-17 13:15:00
9:35 AM,32.0,32.0,100,30.10,2.0,North,6.9,-,0.03,,Overcast,360,2013-03-17 13:35:00
9:55 AM,32.0,32.0,100,30.10,1.5,NNE,6.9,-,0.04,Snow,Light Snow,20,2013-03-17 13:55:00
10:15 AM,32.0,32.0,100,30.10,0.8,North,6.9,-,0.15,Snow,Light Snow,360,2013-03-17 14:15:00
10:35 AM,32.0,32.0,100,30.11,1.2,North,8.1,-,0.24,Snow,Light Snow,10,2013-03-17 14:35:00
10:55 AM,32.0,32.0,100,30.12,1.8,North,4.6,-,0.29,Snow,Light Snow,10,2013-03-17 14:55:00
11:15 AM,32.0,32.0,100,30.13,1.2,North,8.1,-,0.06,Snow,Light Snow,10,2013-03-17 15:15:00
11:35 AM,32.0,32.0,100,30.12,0.8,NE,6.9,-,0.23,Snow,Light Snow,50,2013-03-17 15:35:00
11:55 AM,32.0,32.0,100,30.11,1.5,NNE,5.8,-,0.32,Snow,Light Snow,30,2013-03-17 15:55:00
12:15 PM,32.0,32.0,100,30.10,5.0,Calm,Calm,-,N/A,Snow,Light Snow,0,2013-03-17 16:15:00
12:35 PM,32.0,32.0,100,30.11,8.0,North,5.8,-,N/A,,Overcast,10,2013-03-17 16:35:00
12:55 PM,32.0,32.0,100,30.10,10.0,NNE,9.2,-,N/A,,Overcast,30,2013-03-17 16:55:00
1:15 PM,32.0,30.2,93,30.10,10.0,NNE,5.8,-,N/A,,Overcast,30,2013-03-17 17:15:00
1:35 PM,32.0,30.2,93,30.11,10.0,NNE,4.6,-,N/A,,Overcast,20,2013-03-17 17:35:00
1:55 PM,33.8,32.0,93,30.11,10.0,NNE,5.8,-,N/A,,Overcast,30,2013-03-17 17:55:00
2:15 PM,33.8,30.2,87,30.11,10.0,Calm,Calm,-,N/A,,Overcast,0,2013-03-17 18:15:00
2:35 PM,33.8,30.2,87,30.10,10.0,NNE,5.8,-,N/A,,Overcast,30,2013-03-17 18:35:00
2:55 PM,33.8,30.2,87,30.09,10.0,NE,6.9,-,N/A,,Overcast,50,2013-03-17 18:55:00
3:15 PM,33.8,30.2,87,30.09,7.0,North,5.8,-,N/A,Snow,Light Snow,360,2013-03-17 19:15:00
3:35 PM,33.8,30.2,87,30.09,10.0,North,8.1,-,N/A,,Overcast,10,2013-03-17 19:35:00
3:55 PM,33.8,30.2,87,30.09,10.0,NNE,5.8,-,N/A,,Overcast,20,2013-03-17 19:55:00
4:15 PM,33.8,30.2,87,30.08,10.0,NNE,6.9,-,N/A,,Overcast,30,2013-03-17 20:15:00
4:35 PM,33.8,30.2,87,30.09,10.0,NNE,3.5,-,N/A,,Overcast,30,2013-03-17 20:35:00
4:55 PM,33.8,30.2,87,30.10,2.0,North,6.9,-,0.01,Snow,Light Snow,10,2013-03-17 20:55:00
5:15 PM,32.0,30.2,93,30.10,1.8,NNE,5.8,-,0.01,Snow,Light Snow,30,2013-03-17 21:15:00
5:35 PM,32.0,32.0,100,30.10,1.2,Calm,Calm,-,0.05,Snow,Light Snow,0,2013-03-17 21:35:00
5:55 PM,32.0,32.0,100,30.11,2.0,Calm,Calm,-,0.07,Snow,Light Snow,0,2013-03-17 21:55:00
6:15 PM,32.0,32.0,100,30.11,5.0,Calm,Calm,-,N/A,Snow,Light Snow,0,2013-03-17 22:15:00
6:35 PM,32.0,32.0,100,30.11,4.0,Calm,Calm,-,N/A,Snow,Light Snow,0,2013-03-17 22:35:00
6:55 PM,32.0,32.0,100,30.10,7.0,Calm,Calm,-,N/A,Snow,Light Snow,0,2013-03-17 22:55:00
7:15 PM,32.0,32.0,100,30.10,3.0,Calm,Calm,-,N/A,Snow,Light Snow,0,2013-03-17 23:15:00
7:35 PM,32.0,32.0,100,30.10,3.0,Calm,Calm,-,0.01,Snow,Light Snow,0,2013-03-17 23:35:00
7:55 PM,32.0,32.0,100,30.10,3.0,Calm,Calm,-,0.01,Snow,Light Snow,0,2013-03-17 23:55:00
8:15 PM,32.0,32.0,100,30.11,2.0,Calm,Calm,-,0.07,Snow,Light Snow,0,2013-03-18 00:15:00
8:35 PM,32.0,32.0,100,30.11,1.5,Calm,Calm,-,0.22,Snow,Light Snow,0,2013-03-18 00:35:00
8:55 PM,32.0,32.0,100,30.11,1.5,NE,4.6,-,0.36,Snow,Light Snow,40,2013-03-18 00:55:00
9:15 PM,32.0,32.0,100,30.10,3.0,NNE,5.8,-,0.02,Snow,Light Snow,20,2013-03-18 01:15:00
9:35 PM,32.0,32.0,100,30.09,5.0,NNE,6.9,-,0.03,,Partly Cloudy,30,2013-03-18 01:35:00
9:55 PM,32.0,32.0,100,30.09,8.0,NNE,5.8,-,0.03,,Light Drizzle,30,2013-03-18 01:55:00
10:15 PM,32.0,32.0,100,30.09,10.0,NE,8.1,-,N/A,,Overcast,40,2013-03-18 02:15:00
10:35 PM,33.8,33.8,100,30.08,10.0,NE,6.9,-,N/A,,Overcast,40,2013-03-18 02:35:00
10:55 PM,33.8,33.8,100,30.08,5.0,NNE,8.1,-,N/A,Rain,Light Rain,30,2013-03-18 02:55:00
11:15 PM,33.8,33.8,100,30.08,4.0,NE,5.8,-,0.01,Rain,Light Rain,40,2013-03-18 03:15:00
11:35 PM,33.8,33.8,100,30.07,3.0,NE,8.1,-,0.04,Rain,Light Rain,50,2013-03-18 03:35:00
11:55 PM,33.8,33.8,100,30.06,4.0,NE,5.8,-,0.05,Rain,Light Rain,50,2013-03-18 03:55:00